When you browse on this site, cookies collect data to enhance your experience and personalize the content and advertising you see.
Visit our Privacy Policy to learn more. By continuing to use the site, you agree to this use of cookies and data.
  • In Lithuania
  • List of Countries
  • For 7 days
  • Water Temperature
  • Satellite Maps
  • Weather Map
  • Weather Widgets
  • user-avatar
    Login

    Hourly Weather Ellenabad

    Today, 15 December, Saturday

    Time Temperature Precipitation Wind Pressure Humidity
    00:00 +15°C° 0 mm 2 mps 749 mmHg 36%
    01:00 +14°C° 0 mm 2 mps 749 mmHg 36%
    02:00 +14°C° 0 mm 2 mps 749 mmHg 37%
    03:00 +14°C° 0 mm 2 mps 749 mmHg 37%
    04:00 +13°C° 0 mm 2 mps 749 mmHg 37%
    05:00 +13°C° 0 mm 2 mps 748 mmHg 35%
    06:00 +13°C° 0 mm 2 mps 749 mmHg 35%
    07:00 +14°C° 0 mm 2 mps 749 mmHg 34%
    08:00 +14°C° 0 mm 2 mps 749 mmHg 34%
    09:00 +16°C° 0 mm 2 mps 750 mmHg 30%
    10:00 +18°C° 0 mm 2 mps 750 mmHg 27%
    11:00 +20°C° 0 mm 2 mps 751 mmHg 23%
    12:00 +21°C° 0 mm 2 mps 750 mmHg 22%
    13:00 +23°C° 0 mm 2 mps 750 mmHg 20%
    14:00 +23°C° 0 mm 2 mps 749 mmHg 19%
    15:00 +22°C° 0 mm 1 mps 749 mmHg 20%
    16:00 +22°C° 0 mm 1 mps 748 mmHg 21%
    17:00 +21°C° 0 mm 1 mps 748 mmHg 22%
    18:00 +20°C° 0 mm 1 mps 748 mmHg 23%
    19:00 +19°C° 0 mm 1 mps 749 mmHg 23%
    20:00 +17°C° 0 mm 2 mps 749 mmHg 24%
    21:00 +17°C° 0 mm 2 mps 749 mmHg 24%
    22:00 +16°C° 0 mm 2 mps 749 mmHg 23%
    23:00 +16°C° 0 mm 2 mps 749 mmHg 23%

    Tomorrow, 16 December, Sunday

    Time Temperature Precipitation Wind Pressure Humidity
    00:00 +15°C° 0 mm 2 mps 749 mmHg 23%
    01:00 +15°C° 0 mm 2 mps 749 mmHg 23%
    02:00 +14°C° 0 mm 2 mps 749 mmHg 23%
    03:00 +14°C° 0 mm 2 mps 749 mmHg 23%
    04:00 +13°C° 0 mm 1 mps 749 mmHg 23%
    05:00 +13°C° 0 mm 1 mps 749 mmHg 23%
    06:00 +13°C° 0 mm 1 mps 749 mmHg 22%
    07:00 +14°C° 0 mm 1 mps 750 mmHg 22%
    08:00 +14°C° 0 mm 1 mps 750 mmHg 21%
    09:00 +16°C° 0 mm 1 mps 751 mmHg 19%
    10:00 +19°C° 0 mm 1 mps 751 mmHg 16%
    11:00 +21°C° 0 mm 2 mps 751 mmHg 13%
    12:00 +23°C° 0 mm 2 mps 750 mmHg 13%
    13:00 +24°C° 0 mm 2 mps 750 mmHg 12%
    14:00 +25°C° 0 mm 3 mps 749 mmHg 11%
    15:00 +24°C° 0 mm 3 mps 749 mmHg 12%
    16:00 +21°C° 0 mm 2 mps 748 mmHg 13%
    17:00 +20°C° 0 mm 2 mps 748 mmHg 14%
    18:00 +19°C° 0 mm 2 mps 748 mmHg 14%
    19:00 +18°C° 0 mm 2 mps 748 mmHg 15%
    20:00 +17°C° 0 mm 2 mps 748 mmHg 15%
    21:00 +16°C° 0 mm 2 mps 748 mmHg 15%
    22:00 +16°C° 0 mm 2 mps 748 mmHg 16%
    23:00 +15°C° 0 mm 2 mps 748 mmHg 16%

    Day after tomorrow, 17 December, Monday

    Time Temperature Precipitation Wind Pressure Humidity
    00:00 +14°C° 0 mm 2 mps 748 mmHg 16%
    01:00 +14°C° 0 mm 1 mps 748 mmHg 17%
    02:00 +13°C° 0 mm 1 mps 748 mmHg 17%
    03:00 +13°C° 0 mm 1 mps 748 mmHg 17%
    04:00 +13°C° 0 mm 1 mps 748 mmHg 17%
    05:00 +12°C° 0 mm 1 mps 748 mmHg 17%
    06:00 +13°C° 0 mm 1 mps 748 mmHg 17%
    07:00 +13°C° 0 mm 1 mps 749 mmHg 17%
    08:00 +13°C° 0 mm 1 mps 749 mmHg 17%
    09:00 +16°C° 0 mm 2 mps 749 mmHg 15%
    10:00 +18°C° 0 mm 2 mps 749 mmHg 12%
    11:00 +20°C° 0 mm 2 mps 750 mmHg 10%
    12:00 +21°C° 0 mm 2 mps 749 mmHg 10%
    13:00 +23°C° 0 mm 1 mps 748 mmHg 9%
    14:00 +24°C° 0 mm 1 mps 748 mmHg 8%
    15:00 +23°C° 0 mm 1 mps 747 mmHg 9%
    16:00 +22°C° 0 mm 1 mps 747 mmHg 10%
    17:00 +20°C° 0 mm 1 mps 747 mmHg 12%
    18:00 +19°C° 0 mm 1 mps 747 mmHg 12%
    19:00 +19°C° 0 mm 1 mps 748 mmHg 12%
    20:00 +18°C° 0 mm 1 mps 748 mmHg 13%
    21:00 +16°C° 0 mm 1 mps 748 mmHg 13%
    22:00 +16°C° 0 mm 1 mps 748 mmHg 14%
    23:00 +15°C° 0 mm 1 mps 748 mmHg 15%

    18 December, Tuesday

    Time Temperature Precipitation Wind Pressure Humidity
    00:00 +15°C° 0 mm 1 mps 748 mmHg 15%
    01:00 +14°C° 0 mm 2 mps 747 mmHg 16%
    02:00 +14°C° 0 mm 2 mps 747 mmHg 16%
    03:00 +13°C° 0 mm 1 mps 747 mmHg 17%
    04:00 +13°C° 0 mm 1 mps 747 mmHg 17%
    05:00 +12°C° 0 mm 1 mps 747 mmHg 18%
    06:00 +12°C° 0 mm 1 mps 747 mmHg 18%
    07:00 +13°C° 0 mm 1 mps 748 mmHg 18%
    08:00 +12°C° 0 mm 0 mps 748 mmHg 18%
    09:00 +16°C° 0 mm 1 mps 749 mmHg 15%
    10:00 +19°C° 0 mm 1 mps 749 mmHg 13%
    11:00 +20°C° 0 mm 2 mps 749 mmHg 10%
    12:00 +23°C° 0 mm 2 mps 748 mmHg 9%
    13:00 +24°C° 0 mm 2 mps 747 mmHg 8%
    14:00 +25°C° 0 mm 3 mps 746 mmHg 7%
    15:00 +24°C° 0 mm 2 mps 746 mmHg 8%
    16:00 +21°C° 0 mm 2 mps 746 mmHg 9%
    17:00 +20°C° 0 mm 2 mps 746 mmHg 10%
    18:00 +19°C° 0 mm 2 mps 746 mmHg 10%
    19:00 +18°C° 0 mm 2 mps 746 mmHg 10%
    20:00 +17°C° 0 mm 2 mps 746 mmHg 10%
    21:00 +17°C° 0 mm 2 mps 746 mmHg 10%
    22:00 +16°C° 0 mm 2 mps 746 mmHg 10%
    23:00 +16°C° 0 mm 2 mps 746 mmHg 11%

    19 December, Wednesday

    Time Temperature Precipitation Wind Pressure Humidity
    00:00 +15°C° 0 mm 2 mps 746 mmHg 11%
    01:00 +15°C° 0 mm 2 mps 746 mmHg 11%
    02:00 +14°C° 0 mm 2 mps 745 mmHg 11%
    03:00 +14°C° 0 mm 2 mps 745 mmHg 12%
    04:00 +13°C° 0 mm 2 mps 745 mmHg 12%
    05:00 +13°C° 0 mm 2 mps 745 mmHg 12%
    06:00 +13°C° 0 mm 1 mps 745 mmHg 13%
    07:00 +14°C° 0 mm 1 mps 746 mmHg 13%
    08:00 +14°C° 0 mm 1 mps 746 mmHg 13%
    09:00 +18°C° 0 mm 1 mps 746 mmHg 11%
    10:00 +20°C° 0 mm 1 mps 747 mmHg 9%
    11:00 +23°C° 0 mm 2 mps 747 mmHg 7%
    12:00 +24°C° 0 mm 2 mps 746 mmHg 7%
    13:00 +25°C° 0 mm 2 mps 746 mmHg 6%
    14:00 +26°C° 0 mm 2 mps 745 mmHg 6%
    15:00 +24°C° 0 mm 2 mps 745 mmHg 7%
    16:00 +23°C° 0 mm 2 mps 745 mmHg 8%
    17:00 +21°C° 0 mm 1 mps 744 mmHg 9%
    18:00 +20°C° 0 mm 1 mps 745 mmHg 9%
    19:00 +19°C° 0 mm 1 mps 745 mmHg 9%
    20:00 +18°C° 0 mm 1 mps 746 mmHg 10%
    21:00 +18°C° 0 mm 1 mps 746 mmHg 10%
    22:00 +16°C° 0 mm 1 mps 746 mmHg 10%
    23:00 +16°C° 0 mm 1 mps 746 mmHg 11%

    20 December, Thursday

    Time Temperature Precipitation Wind Pressure Humidity
    00:00 +15°C° 0 mm 1 mps 745 mmHg 11%
    01:00 +15°C° 0 mm 1 mps 745 mmHg 11%
    02:00 +14°C° 0 mm 1 mps 745 mmHg 12%
    03:00 +14°C° 0 mm 1 mps 745 mmHg 12%
    04:00 +13°C° 0 mm 1 mps 745 mmHg 12%
    05:00 +13°C° 0 mm 1 mps 745 mmHg 13%
    06:00 +13°C° 0 mm 1 mps 746 mmHg 13%
    07:00 +14°C° 0 mm 1 mps 746 mmHg 13%
    08:00 +13°C° 0 mm 0 mps 747 mmHg 14%
    09:00 +16°C° 0 mm 0 mps 747 mmHg 12%
    10:00 +18°C° 0 mm 0 mps 747 mmHg 10%
    11:00 +21°C° 0 mm 0 mps 748 mmHg 8%
    12:00 +24°C° 0 mm 1 mps 747 mmHg 8%
    13:00 +25°C° 0 mm 1 mps 746 mmHg 7%
    14:00 +25°C° 0 mm 1 mps 745 mmHg 7%
    15:00 +24°C° 0 mm 1 mps 745 mmHg 8%
    16:00 +22°C° 0 mm 1 mps 745 mmHg 9%
    17:00 +21°C° 0 mm 1 mps 744 mmHg 11%
    18:00 +20°C° 0 mm 1 mps 745 mmHg 11%
    19:00 +19°C° 0 mm 1 mps 745 mmHg 12%
    20:00 +18°C° 0 mm 1 mps 745 mmHg 12%
    21:00 +18°C° 0 mm 1 mps 745 mmHg 13%
    22:00 +16°C° 0 mm 1 mps 745 mmHg 14%
    23:00 +15°C° 0 mm 1 mps 745 mmHg 14%
    Show more